Tracking 25953 objects as of 16-Aug-2022
HD Live streaming from Space Station
objects crossing your sky now

STARLINK-3937

Track STARLINK-3937 now!
10-day predictions
STARLINK-3937 is classified as:


NORAD ID: 52542
Int'l Code: 2022-051K
Perigee: 545.7 km
Apogee: 548.3 km
Inclination: 53.2 °
Period: 95.4 minutes
Semi major axis: 6917 km
RCS: Unknown
Launch date: May 13, 2022
Source: United States (US)
Launch site: AIR FORCE WESTERN TEST RANGE (AFWTR)
aabbcc
Your satellite tracking list
Your tracking list is empty




NASA's NSSDC Master Catalog

Two Line Element Set (TLE):
1 52542U 22051K   22227.91667824  .00033429  00000-0  21101-2 0  9994
2 52542  53.2172 212.9917 0001895  52.1088 231.5704 15.08812352  1309
Source of the keplerian elements: AFSPC